Погода в Михайловке

Украина / Черкасская область     49°38′33″N   31°32′55″E
темп.,
°C
ветер,
м/с
пор.,
м/с
влажн.,
%
обл.,
%
осадки,
мм/ч
давл.,
гПа
погр.,
м
4 июля, пн
пн400:00+18юв116224 0.0 101812
03:00+17ююз005916 0.0 101813
06:00+18ссв116011 0.0 101813
09:00+24вюв11460 0.0 1018496
12:00+29в113410 0.0 10171652
15:00+30всв123020 0.0 10162462
18:00+30всв33309 0.0 10151745
21:00+23юв334550 0.0 101527
5 июля, вт
вт500:00+20ююв22530 0.0 101614
03:00+19ю11560 0.0 101611
06:00+20ююв225746 0.0 101627
09:00+26в224132 0.0 1016389
12:00+31вюв323058 0.0 10152628
15:00+33в3325100 0.0 10143010
18:00+32вюв42272 0.0 10131892
21:00+24юв35483 0.0 101457
6 июля, ср
ср600:00+22юв34516 0.0 101459
03:00+20юв33614 0.0 101439
06:00+20юв34610 0.0 101471
09:00+28юв56396 0.0 1013427
12:00+34ююв552614 0.0 10122642
15:00+32з5629100 0.1 10111006
18:00+30в3637100 0.3 1010311
21:00+26всв2545100 0.3 1010101
7 июля, чт
чт700:00+21ссз81385100 0.0 1013505
03:00+18ссз47944 0.0 1013204
06:00+17ссз599346 0.0 1015316
09:00+19ссз568349 1.1 1015490
12:00+24с3361100 1.0 1015849
15:00+25сз2353100 1.0 1015819
18:00+26сз3449100 0.2 1014784
21:00+20ссз51183100 1.3 1014252
8 июля, пт
пт800:00+18ссв6129298 1.8 1015376
03:00+18с589495 3.4 1014231
06:00+18ссв499591 2.9 1014305
09:00+21с578198 4.0 1015513
12:00+23ссв686780 0.0 1015711
15:00+26ссв6653100 0.0 10141065
18:00+26с675590 0.0 1014922
21:00+22ссв6107024 0.0 1015406